User: anonymous   Login
Location: Antichan
(42.9728°N, 0.6667°E)
Time: 11:45:05
(UTC+00:00)
Language:

Meteor 1-11 Rocket - Orbit

View from above orbital plane
View from above orbital plane
View from above satellite
View from above satellite

Ground track
Ground track

The orbit data is extracted from the following two-line orbital elements,

1  5918U 72022B   20304.89831180 -.00000036 +00000-0 -29549-4 0  9997
2  5918 081.2401 214.3294 0059639 105.5087 255.2678 14.05873149490790
Epoch (UTC): 30 October 2020 21:33:34
Eccentricity: 0.0059639
inclination: 81.2401°
perigee height: 830 km
apogee height: 917 km
right ascension of ascending node: 214.3294°
argument of perigee: 105.5087°
revolutions per day: 14.05873149
mean anomaly at epoch: 255.2678°
orbit number at epoch: 49079

The dashed part of the orbit path shows where the satellite is in the earth's shadow,  

DLR